Wind_Speed
45 43 41 42 40 39 35 32 30 30 30 25 24 22 19 16 13 12 13 17 15 18 19 17 13 15 17 18 26 25 24 22 20 19 18 18 19 19 19 19 18 18 18 18
51 52 44 41 40 38 36 34 35 33 34 32 28 25 20 16 14 13 11 13 16 19 20 19 15 11 17 19 26 25 25 23 20 17 16 15 18 19 18 17 16 15 16 14
53 49 42 42 42 39 37 37 39 41 39 37 31 29 24 19 15 14 15 11 17 19 21 24 17 15 21 24 27 26 25 22 20 17 16 16 16 17 14 13 13 13 13 12
51 42 44 45 42 39 37 40 39 40 42 40 37 33 27 23 19 17 17 13 14 21 21 25 24 19 24 26 27 27 26 23 20 18 16 15 14 13 10 9 10 11 10 8
53 50 48 47 45 38 39 35 32 34 36 43 34 35 33 29 25 21 17 15 16 18 21 25 25 20 26 30 30 29 27 24 21 20 16 13 12 12 9 8 8 9 7 7
58 57 48 49 42 39 34 32 33 35 38 34 37 39 39 35 31 23 21 19 17 17 22 22 25 23 35 36 33 32 31 27 25 22 18 15 12 9 8 6 5 4 3 2
57 55 53 49 46 41 35 33 31 29 34 34 49 49 46 42 33 29 24 19 17 15 20 23 30 29 41 40 36 35 32 29 25 21 18 16 13 11 9 7 5 4 3 2
64 60 52 48 45 44 39 35 32 32 35 46 56 45 47 43 39 32 26 22 20 17 21 25 28 31 42 38 34 33 31 30 28 25 22 18 15 13 11 10 10 10 9 8
67 63 63 57 55 48 44 33 38 35 32 40 42 50 51 43 39 35 30 26 24 21 23 27 29 35 39 37 35 35 33 32 28 27 25 22 19 16 14 14 15 13 13 14
76 73 68 64 59 50 41 45 28 30 27 32 46 46 51 48 43 37 33 30 28 24 23 29 32 37 38 37 35 34 32 32 31 30 30 26 24 21 18 18 17 16 17 16
82 77 74 70 55 52 52 40 32 31 30 35 41 50 52 52 44 40 38 37 33 28 27 30 33 36 37 34 35 38 40 38 36 34 32 30 28 25 23 20 19 18 19 18
86 79 77 62 66 64 58 54 47 43 34 36 38 41 46 46 51 45 40 40 38 34 31 31 30 28 30 35 35 35 36 36 37 36 35 33 31 28 26 24 22 22 21 21
91 82 76 76 75 68 58 55 51 50 46 41 43 32 33 43 50 53 46 46 42 39 34 34 32 29 32 36 39 38 39 40 39 37 34 33 31 30 28 27 26 25 24 26
88 84 80 76 67 73 67 59 57 53 48 44 45 41 36 38 49 54 53 51 49 47 42 36 35 38 37 38 38 38 36 35 36 36 35 34 32 30 30 31 30 27 29 31
97 90 85 86 89 78 71 68 63 56 53 47 51 49 46 40 45 53 58 56 54 51 48 45 41 41 41 39 40 40 39 38 37 38 38 37 34 34 35 35 34 33 36 37
100 94 92 93 87 77 70 67 65 63 60 57 53 51 52 44 40 45 59 61 61 55 52 51 47 44 40 43 43 41 39 38 36 38 39 38 36 38 37 37 37 37 37 36
96 100 97 90 86 80 76 71 68 67 65 62 60 58 58 48 43 40 47 62 64 62 57 52 52 50 47 44 42 40 39 38 41 41 40 39 38 39 39 38 37 39 40 40
101 102 95 91 89 83 76 82 80 74 72 69 67 63 60 57 50 43 38 44 56 61 60 59 55 53 53 51 48 47 45 43 42 42 41 41 41 41 40 41 44 44 45 47
99 99 98 95 89 83 84 85 85 80 75 75 70 65 65 64 55 45 44 40 44 55 60 61 60 58 55 52 52 50 49 48 47 47 48 47 45 44 46 47 47 48 50 51
101 98 98 98 94 88 90 93 87 82 77 77 74 69 63 62 59 56 50 44 38 34 35 44 55 58 57 57 58 55 54 52 51 51 48 46 48 50 51 51 50 50 44 40
98 102 99 98 96 92 95 93 90 88 87 81 81 75 66 62 62 57 49 47 45 44 38 36 33 37 48 56 56 58 59 57 59 54 53 51 47 46 43 40 35 32 31 33
92 94 99 102 99 97 92 89 94 95 89 85 81 76 66 60 59 60 58 52 47 45 42 39 38 37 38 41 44 47 47 52 49 50 49 44 41 38 34 34 33 33 32 34
88 88 91 98 100 98 98 95 95 93 88 85 80 77 71 67 67 65 62 58 53 47 46 42 40 40 43 44 45 41 42 38 40 39 38 39 38 38 37 37 36 38 39 39
90 87 86 86 89 94 94 87 88 89 88 87 86 83 78 73 72 70 66 64 60 54 50 48 45 44 44 44 46 45 42 42 42 41 41 41 42 43 44 45 46 45 45 45
91 87 83 83 86 95 94 86 86 85 90 90 92 91 86 80 76 75 72 68 65 63 58 55 54 50 50 50 51 49 48 47 47 48 48 49 50 50 51 51 53 53 52 52
92 90 85 81 90 90 94 91 91 92 94 98 96 91 88 85 81 78 76 72 70 69 67 63 57 56 55 55 55 56 55 55 55 55 56 58 58 59 58 58 59 59 58 58
Wind_Direction
253 258 256 253 256 262 263 258 244 240 244 236 240 244 251 254 258 264 245 224 208 210 205 190 181 201 191 191 170 167 168 167 160 161 158 147 141 134 129 120 110 102 98 88
255 253 258 254 253 255 253 250 238 236 237 234 232 240 244 247 246 253 260 220 214 215 214 197 188 200 200 187 172 171 170 172 166 165 162 153 144 144 139 132 118 108 101 105
254 254 252 246 247 253 256 253 240 227 228 230 226 231 232 238 242 240 258 252 224 207 217 208 200 198 195 183 177 175 174 175 172 169 169 161 153 152 145 134 122 116 109 105
252 250 247 245 248 252 257 253 246 235 229 227 221 226 229 232 232 236 248 251 249 218 215 214 209 204 189 182 179 181 179 178 178 177 173 170 163 166 157 139 125 114 114 114
246 246 245 246 249 256 255 256 245 236 232 231 220 226 228 230 228 232 239 233 242 225 211 220 219 202 191 182 182 182 181 182 181 184 183 175 167 163 157 146 125 115 117 112
247 249 247 248 249 247 247 243 232 233 229 221 222 223 229 230 230 229 232 226 235 228 216 222 227 198 185 181 185 186 187 186 188 187 187 185 180 170 168 160 138 135 128 102
242 244 240 243 244 242 239 236 234 237 233 214 223 217 227 228 225 225 224 227 231 231 225 222 224 203 190 182 186 190 189 190 190 190 191 194 193 191 192 195 198 222 240 260
237 240 241 237 236 236 235 235 230 232 227 218 222 214 224 222 217 224 225 223 228 227 219 212 210 205 190 182 189 193 195 195 195 194 196 202 207 215 223 236 245 247 254 255
234 235 234 235 233 238 239 236 227 231 237 230 227 226 227 221 215 216 223 224 225 227 219 207 206 202 186 183 192 196 200 200 201 202 204 209 214 220 227 239 249 256 260 264
230 227 232 230 233 239 243 233 243 233 236 227 222 224 228 220 217 214 221 223 227 226 214 209 199 195 195 190 191 196 201 206 209 210 212 216 219 224 229 238 245 250 255 263
229 230 231 232 237 233 232 237 226 223 229 230 227 222 222 216 214 212 217 218 223 220 212 206 201 200 200 197 197 199 202 206 210 215 217 220 226 231 232 238 245 248 252 261
227 228 230 232 223 225 224 225 217 208 211 221 226 227 224 219 214 214 214 218 220 219 215 207 208 215 213 205 205 209 211 212 216 219 222 224 230 235 237 239 242 244 253 263
227 226 223 223 222 225 227 223 218 212 216 228 239 236 228 219 217 214 215 220 215 216 214 211 208 212 218 217 213 214 217 218 220 224 229 232 236 243 246 249 251 256 261 267
224 222 222 223 223 222 222 220 217 216 214 223 232 238 233 216 217 213 215 219 216 214 212 208 210 212 215 219 221 223 226 228 227 230 233 237 238 242 250 256 260 265 270 278
219 218 218 217 217 219 220 216 212 212 211 214 222 230 229 223 216 211 211 216 218 216 214 213 210 214 215 218 221 221 223 226 228 232 236 240 242 247 250 255 261 266 272 276
221 218 217 218 221 219 221 220 214 209 210 209 211 222 231 225 220 215 211 214 218 217 217 217 216 216 216 219 222 226 229 229 232 236 239 243 246 251 254 258 264 267 271 276
223 221 220 220 223 218 217 218 215 210 210 213 211 217 229 225 217 213 213 215 218 218 219 220 221 221 221 223 225 227 231 233 235 239 242 245 249 252 256 260 263 267 272 276
219 223 224 220 221 219 214 215 215 211 209 211 211 214 224 231 223 218 219 220 222 224 223 223 224 225 226 228 228 230 231 233 237 241 244 247 250 255 260 264 267 271 275 277
218 220 220 221 221 216 214 215 216 214 210 210 210 210 213 226 229 216 218 218 221 223 226 228 229 230 232 235 235 236 240 240 242 246 250 253 257 262 265 267 271 273 276 279
216 217 218 219 219 215 213 215 214 214 212 212 212 211 214 223 229 227 213 217 224 227 230 233 235 237 236 237 238 240 242 244 246 248 252 258 261 262 264 268 270 273 274 274
214 215 215 217 218 216 215 213 212 213 213 210 210 210 211 216 226 232 223 219 218 222 226 231 234 235 236 237 239 241 245 248 249 253 255 256 256 258 260 261 261 265 270 274
213 215 216 216 218 217 216 212 212 213 211 209 211 211 212 217 221 228 233 226 215 217 220 222 227 231 235 238 239 240 245 249 256 255 253 248 248 251 255 259 264 272 276 280
214 216 217 219 218 217 219 212 211 213 212 210 212 211 212 214 218 221 228 232 226 217 217 218 221 226 231 233 240 243 243 245 242 244 246 248 250 251 256 261 265 270 275 282
212 213 215 219 220 219 220 213 211 212 211 211 212 214 213 216 219 222 224 229 233 228 219 220 223 228 234 236 238 241 241 245 250 251 251 253 256 259 262 265 268 271 276 282
213 215 215 215 217 218 219 217 213 212 213 212 212 214 215 216 219 222 223 226 233 236 232 226 227 227 233 240 242 243 243 245 248 253 257 260 261 262 264 266 268 273 279 282
212 214 213 212 217 218 218 216 213 212 212 213 212 211 215 219 221 222 224 225 229 234 239 238 236 235 234 236 242 246 247 249 252 254 256 259 262 265 267 270 273 276 278 280
Height
10908 10913 10913 10915 10916 10918 10923 10928 10933 10935 10939 10942 10943 10944 10947 10947 10948 10948 10947 10948 10949 10951 10954 10954 10956 10960 10963 10966 10968 10973 10978 10981 10984 10986 10988 10989 10990 10991 10991 10992 10993 10994 10994 10995
10897 10897 10905 10908 10907 10909 10913 10917 10922 10925 10930 10935 10938 10939 10941 10943 10945 10946 10945 10946 10948 10950 10952 10953 10956 10959 10963 10966 10969 10973 10978 10982 10984 10987 10989 10990 10991 10992 10993 10994 10995 10995 10996 10997
10879 10890 10895 10895 10896 10901 10905 10906 10910 10915 10918 10925 10933 10934 10936 10939 10941 10942 10943 10943 10945 10947 10950 10952 10954 10957 10962 10964 10969 10973 10978 10982 10985 10987 10989 10990 10992 10993 10994 10995 10996 10997 10997 10998
10868 10880 10881 10884 10887 10893 10897 10896 10901 10906 10912 10917 10923 10928 10932 10933 10935 10938 10939 10940 10941 10944 10947 10951 10952 10955 10959 10964 10968 10973 10978 10982 10985 10988 10989 10991 10992 10994 10995 10996 10997 10997 10998 10999
10854 10863 10868 10874 10879 10885 10885 10890 10893 10896 10904 10907 10919 10922 10924 10926 10929 10933 10936 10936 10938 10940 10943 10947 10951 10952 10956 10962 10967 10972 10977 10981 10985 10988 10990 10992 10994 10995 10996 10996 10996 10997 10999 10999
10842 10846 10862 10859 10872 10872 10878 10881 10883 10884 10891 10903 10909 10912 10915 10919 10923 10929 10931 10932 10934 10936 10939 10943 10947 10949 10951 10957 10964 10969 10974 10979 10982 10986 10989 10991 10994 10995 10996 10997 10997 10998 10999 10999
10826 10834 10841 10853 10858 10862 10870 10871 10876 10880 10884 10894 10889 10897 10901 10909 10919 10922 10926 10928 10930 10932 10934 10938 10941 10943 10947 10952 10959 10965 10971 10977 10982 10985 10988 10990 10992 10994 10996 10997 10997 10998 10998 10999
10810 10821 10832 10841 10846 10850 10859 10864 10870 10870 10872 10875 10875 10895 10897 10902 10911 10918 10921 10923 10925 10927 10929 10933 10937 10940 10944 10950 10958 10965 10971 10976 10980 10983 10986 10988 10991 10993 10994 10996 10996 10997 10997 10998
10796 10806 10811 10825 10830 10840 10849 10860 10854 10863 10866 10869 10877 10880 10885 10899 10907 10913 10916 10919 10920 10923 10925 10928 10933 10939 10944 10947 10954 10961 10967 10972 10977 10980 10983 10986 10988 10989 10991 10991 10992 10993 10994 10994
10777 10783 10797 10806 10818 10832 10844 10841 10857 10859 10861 10861 10863 10871 10877 10889 10898 10907 10912 10915 10916 10919 10921 10925 10929 10936 10940 10943 10949 10956 10963 10967 10972 10974 10976 10980 10983 10985 10987 10988 10989 10990 10990 10990
10755 10769 10778 10789 10815 10822 10828 10839 10849 10849 10853 10851 10853 10858 10864 10877 10891 10899 10903 10907 10911 10915 10918 10922 10926 10931 10936 10942 10947 10950 10954 10959 10963 10967 10971 10974 10978 10980 10982 10984 10986 10986 10987 10988
10738 10756 10763 10792 10793 10800 10811 10821 10832 10840 10843 10841 10843 10850 10861 10871 10881 10889 10894 10899 10904 10909 10914 10918 10924 10930 10934 10938 10942 10946 10951 10956 10958 10962 10965 10968 10972 10974 10977 10979 10980 10982 10984 10984
10714 10740 10754 10760 10770 10784 10802 10814 10824 10830 10833 10839 10838 10848 10853 10862 10869 10878 10885 10888 10895 10901 10907 10912 10918 10925 10928 10932 10935 10940 10944 10948 10953 10957 10961 10964 10967 10970 10973 10974 10976 10978 10979 10980
10706 10720 10740 10753 10776 10771 10786 10803 10813 10821 10830 10834 10834 10837 10843 10850 10856 10867 10873 10878 10884 10890 10897 10903 10909 10913 10918 10923 10929 10933 10939 10945 10949 10953 10956 10958 10962 10965 10967 10968 10969 10973 10973 10974
10678 10699 10718 10727 10729 10752 10771 10785 10799 10814 10820 10826 10824 10827 10831 10840 10844 10852 10860 10866 10873 10881 10888 10894 10899 10904 10910 10916 10921 10927 10932 10937 10942 10945 10948 10951 10956 10958 10959 10960 10963 10966 10966 10968
10658 10681 10693 10702 10719 10744 10761 10775 10789 10798 10807 10809 10814 10817 10820 10831 10836 10842 10848 10854 10861 10870 10878 10884 10891 10896 10902 10907 10913 10920 10925 10930 10936 10938 10941 10945 10948 10950 10952 10955 10956 10957 10959 10960
10648 10657 10673 10696 10709 10730 10745 10764 10775 10785 10792 10799 10805 10806 10809 10821 10828 10832 10837 10843 10850 10860 10870 10877 10883 10888 10894 10900 10905 10911 10918 10924 10926 10930 10934 10937 10940 10942 10945 10948 10949 10949 10950 10952
10621 10637 10662 10682 10690 10714 10743 10741 10751 10764 10773 10783 10789 10796 10803 10809 10819 10829 10835 10840 10846 10853 10861 10867 10873 10879 10885 10890 10898 10901 10908 10914 10918 10922 10925 10928 10930 10933 10936 10938 10938 10940 10941 10940
10604 10624 10642 10660 10681 10705 10716 10724 10734 10748 10761 10768 10779 10785 10791 10798 10809 10821 10827 10832 10836 10842 10849 10857 10865 10872 10879 10886 10890 10895 10900 10903 10907 10911 10913 10917 10922 10925 10925 10926 10928 10929 10929 10928
10585 10605 10623 10638 10659 10678 10692 10694 10719 10735 10749 10757 10768 10775 10783 10792 10799 10804 10814 10825 10833 10840 10846 10853 10860 10865 10870 10873 10877 10884 10887 10892 10895 10897 10903 10909 10912 10912 10913 10916 10916 10917 10917 10917
10563 10582 10602 10620 10635 10655 10663 10681 10702 10717 10722 10739 10749 10762 10773 10782 10788 10798 10810 10817 10824 10830 10837 10843 10849 10855 10859 10861 10869 10873 10877 10883 10881 10891 10895 10896 10896 10898 10900 10902 10903 10905 10906 10907
10552 10567 10586 10603 10618 10630 10649 10671 10683 10691 10710 10727 10740 10757 10770 10779 10787 10788 10795 10805 10814 10821 10828 10834 10841 10846 10850 10855 10860 10864 10869 10868 10878 10880 10882 10884 10886 10888 10889 10891 10893 10894 10895 10895
10544 10559 10568 10583 10602 10620 10623 10640 10662 10680 10704 10720 10735 10748 10757 10763 10769 10778 10785 10792 10801 10811 10818 10825 10831 10836 10840 10846 10849 10855 10857 10864 10866 10870 10872 10874 10875 10877 10879 10880 10882 10883 10884 10885
10525 10542 10558 10572 10596 10604 10616 10634 10654 10675 10693 10708 10722 10731 10741 10751 10758 10765 10775 10781 10788 10798 10807 10814 10820 10824 10829 10834 10838 10842 10847 10851 10854 10858 10861 10863 10865 10866 10868 10869 10872 10873 10874 10874
10513 10528 10546 10561 10573 10585 10603 10621 10641 10662 10677 10689 10698 10710 10724 10738 10747 10752 10762 10772 10777 10783 10792 10802 10808 10815 10820 10823 10826 10831 10835 10839 10842 10844 10847 10851 10853 10855 10856 10859 10858 10859 10861 10860
10499 10514 10529 10550 10546 10564 10582 10598 10617 10634 10649 10661 10677 10699 10713 10723 10732 10742 10750 10760 10768 10773 10778 10787 10798 10805 10809 10813 10816 10820 10824 10827 10829 10833 10835 10837 10839 10841 10843 10844 10845 10845 10847 10846